Location: Broekland
(52.3610°N, 6.2005°E)
Time: 20:41:45
(UTC+00:00)

KORONAS-FOTON - Pass Details

Date: 19 May 2025
Orbit: 447 x 464 km, 82.4° (Epoch: 20 June)

Event Time Altitude Azimuth Distance (km) Brightness Sun altitude
Exits shadow 23:23:21 32° 233° (SW) 802 4.4 -17.6°
Maximum altitude 23:24:31 47° 285° (WNW) 619 4.2 -17.6°
Drops below altitude 10° 23:27:55 10° 1° (N) 1,605 7.6 -17.6°
Sets 23:30:03 0° 7° (N) 2,481 9.0 -17.7°
